CW7549 Weather Reports


Display with metric or nautical units.
time (UTC)temp
F
wind
direction
speed
MPH
gust
MPH
rain 1hr
in
rain 24hr
in
rain mn
in
humidity
%
barometer
mb
20260505233240 49 345 0.0 2.0 0.00 0.00 0.00 80 1010.4
20260505232251 49 345 1.0 3.0 0.00 0.00 0.00 80 1010.4
20260505231247 50 345 1.0 3.0 0.00 0.00 0.00 80 1010.5
20260505230236 50 344 1.0 3.0 0.00 0.00 0.00 79 1010.5
20260505225305 50 343 1.0 3.0 0.00 0.00 0.00 79 1010.5
20260505224243 50 342 2.0 4.0 0.00 0.00 0.00 79 1010.5
20260505223247 50 342 0.0 4.0 0.00 0.00 0.00 78 1010.6
20260505222243 50 341 2.0 4.0 0.00 0.00 0.00 78 1010.6
20260505221243 50 5 0.0 3.0 0.00 0.00 0.00 78 1010.6
20260505220246 50 5 2.0 5.0 0.00 0.00 0.00 78 1010.6
20260505215240 51 9 1.0 5.0 0.00 0.00 0.00 77 1010.6
20260505214239 51 5 1.0 4.0 0.00 0.00 0.00 77 1010.6
20260505213240 51 5 2.0 5.0 0.00 0.00 0.00 76 1010.6
20260505212236 51 355 0.0 6.0 0.00 0.00 0.00 76 1010.6
20260505211233 51 19 3.0 7.0 0.00 0.00 0.00 75 1010.6
20260505210238 52 10 2.0 6.0 0.00 0.00 0.00 75 1010.6
20260505205237 52 346 3.0 6.0 0.00 0.00 0.00 74 1010.6
20260505204240 52 15 1.0 7.0 0.00 0.00 0.00 73 1010.6
20260505203234 52 339 2.0 7.0 0.00 0.00 0.00 72 1010.5
20260505202241 53 342 2.0 8.0 0.00 0.00 0.00 71 1010.5
20260505201237 53 351 3.0 9.0 0.00 0.00 0.00 70 1010.4
20260505200245 53 24 4.0 7.0 0.00 0.00 0.00 69 1010.2
20260505195259 54 355 3.0 5.0 0.00 0.00 0.00 68 1010.2
20260505194250 54 350 1.0 11.0 0.00 0.00 0.00 66 1010.1
20260505193238 54 336 4.0 10.0 0.00 0.00 0.00 65 1010.0
20260505192231 55 340 2.0 7.0 0.00 0.00 0.00 64 1010.0
20260505191307 55 338 2.0 7.0 0.00 0.00 0.00 64 1009.9
20260505190243 55 22 5.0 12.0 0.00 0.00 0.00 63 1009.7
20260505185234 56 333 6.0 9.0 0.00 0.00 0.00 63 1009.7
20260505184245 56 325 2.0 12.0 0.00 0.00 0.00 62 1009.8
20260505183238 57 15 5.0 12.0 0.00 0.00 0.00 63 1009.6
20260505182252 58 42 2.0 10.0 0.00 0.00 0.00 63 1009.6
20260505181243 58 355 1.0 3.0 0.00 0.00 0.00 63 1009.6
20260505180234 59 16 3.0 9.0 0.00 0.00 0.00 62 1009.5
20260505175235 59 347 2.0 10.0 0.00 0.00 0.00 61 1009.5
20260505174236 60 331 3.0 6.0 0.00 0.00 0.00 62 1009.5
20260505173248 60 340 2.0 10.0 0.00 0.00 0.00 60 1009.5
20260505172305 60 12 3.0 7.0 0.00 0.00 0.00 60 1009.5
20260505171243 60 360 4.0 8.0 0.00 0.00 0.00 59 1009.5
20260505170257 61 341 4.0 7.0 0.00 0.00 0.00 58 1009.6
20260505165235 62 360 3.0 6.0 0.00 0.00 0.00 58 1009.6
20260505164311 62 309 0.0 4.0 0.00 0.00 0.00 60 1009.6
20260505163242 62 11 0.0 4.0 0.00 0.00 0.00 59 1009.7
20260505162233 63 355 2.0 5.0 0.00 0.00 0.00 58 1009.7
20260505161244 62 27 3.0 7.0 0.00 0.00 0.00 57 1009.6
20260505160236 62 355 1.0 4.0 0.00 0.00 0.00 61 1009.7
20260505153253 62 336 1.0 4.0 0.00 0.00 0.00 60 1009.9
20260505152240 62 360 0.0 4.0 0.00 0.00 0.00 61 1009.9
20260505151236 61 9 1.0 7.0 0.00 0.00 0.00 60 1010.1
20260505150250 61 17 3.0 6.0 0.00 0.00 0.00 61 1010.1
20260505140243 60 24 0.0 2.0 0.00 0.00 0.00 71 1010.5
20260505130246 60 17 3.0 6.0 0.00 0.00 0.00 69 1010.6
20260505124236 61 323 2.0 6.0 0.00 0.00 0.00 70 1010.6
20260505123244 61 25 3.0 5.0 0.00 0.00 0.00 69 1010.6
20260505122238 61 33 3.0 5.0 0.00 0.00 0.00 70 1010.6
20260505121239 61 355 2.0 7.0 0.00 0.00 0.00 70 1010.6
20260505120306 60 28 1.0 6.0 0.00 0.00 0.00 71 1010.6
20260505115249 60 30 0.0 2.0 0.00 0.00 0.00 72 1010.6
20260505114246 60 30 0.0 1.0 0.00 0.00 0.00 71 1010.7
20260505113238 60 29 0.0 4.0 0.00 0.00 0.00 71 1010.8
20260505112248 60 31 4.0 5.0 0.00 0.00 0.00 70 1010.8
20260505111242 61 11 3.0 4.0 0.00 0.00 0.00 69 1010.8
20260505110256 61 12 4.0 7.0 0.00 0.00 0.00 70 1010.8
20260505101242 58 313 2.0 5.0 0.00 0.00 0.00 73 1010.9
20260505100237 58 51 3.0 7.0 0.00 0.00 0.00 72 1010.9
20260505095241 59 57 1.0 6.0 0.00 0.00 0.00 72 1010.9
20260505094235 59 56 3.0 6.0 0.00 0.00 0.00 71 1010.9
20260505093251 60 59 5.0 9.0 0.00 0.00 0.00 71 1010.8
20260505092246 59 42 2.0 9.0 0.00 0.00 0.00 73 1010.8
20260505091238 59 55 5.0 11.0 0.00 0.00 0.00 73 1010.8
20260505090304 59 68 6.0 10.0 0.00 0.00 0.00 74 1010.8
20260505085300 58 52 2.0 7.0 0.00 0.00 0.00 76 1010.8
20260505084235 57 43 1.0 8.0 0.00 0.00 0.00 78 1010.8
20260505083245 56 52 4.0 6.0 0.00 0.00 0.00 79 1010.7
20260505082233 55 52 2.0 7.0 0.00 0.00 0.00 80 1010.6
20260505081305 55 52 4.0 5.0 0.00 0.00 0.00 81 1010.7
20260505080303 54 52 3.0 7.0 0.00 0.00 0.00 81 1010.6
20260505075246 54 52 3.0 6.0 0.00 0.00 0.00 81 1010.6
20260505074258 54 65 5.0 9.0 0.00 0.00 0.00 82 1010.6
20260505073237 53 106 3.0 6.0 0.00 0.00 0.00 85 1010.6
20260505072234 53 112 3.0 5.0 0.00 0.00 0.00 86 1010.6
20260505071243 52 112 2.0 5.0 0.00 0.00 0.00 87 1010.7
20260505070251 52 181 2.0 3.0 0.00 0.00 0.00 88 1010.7
20260505065248 52 182 1.0 2.0 0.00 0.00 0.00 89 1010.7
20260505064244 51 182 0.0 2.0 0.00 0.00 0.00 89 1010.6
20260505063242 51 182 1.0 3.0 0.00 0.00 0.00 90 1010.6
20260505062234 50 182 0.0 0.0 0.00 0.00 0.00 89 1010.6
20260505061245 50 182 0.0 0.0 0.00 0.00 0.00 89 1010.6
20260505060233 49 182 0.0 0.0 0.00 0.00 0.00 88 1010.6
20260505055312 49 182 0.0 0.0 0.00 0.00 0.00 88 1010.6
20260505054250 49 182 0.0 0.0 0.00 0.00 0.00 88 1010.6
20260505053242 49 182 0.0 0.0 0.00 0.00 0.00 88 1010.5
20260505052234 49 182 0.0 0.0 0.00 0.00 0.00 88 1010.5
20260505051243 49 182 1.0 4.0 0.00 0.00 0.00 87 1010.4
20260505050235 49 182 0.0 1.0 0.00 0.00 0.00 87 1010.5
20260505041234 51 182 1.0 3.0 0.00 0.00 0.00 88 1010.3
20260505040248 51 182 0.0 1.0 0.00 0.00 0.00 88 1010.2
20260505035309 51 182 0.0 4.0 0.00 0.00 0.00 88 1010.2
20260505034247 51 187 0.0 3.0 0.00 0.00 0.00 88 1010.3
20260505033237 51 187 2.0 4.0 0.00 0.00 0.00 88 1010.2
20260505032254 51 187 2.0 4.0 0.00 0.00 0.00 88 1010.2
20260505031306 51 190 2.0 4.0 0.00 0.00 0.00 88 1010.3
20260505030242 51 210 1.0 3.0 0.00 0.00 0.00 87 1010.3
20260505025249 51 210 1.0 3.0 0.00 0.00 0.00 87 1010.3
20260505024246 51 210 1.0 3.0 0.00 0.00 0.00 88 1010.4
20260505023241 51 210 1.0 3.0 0.00 0.00 0.00 88 1010.5
20260505022235 52 210 0.0 3.0 0.00 0.00 0.00 87 1010.5
20260505021237 52 210 2.0 4.0 0.00 0.00 0.00 87 1010.5
20260505020236 52 210 1.0 3.0 0.00 0.00 0.00 87 1010.6
20260505015247 52 211 1.0 2.0 0.00 0.00 0.00 88 1010.6
20260505014245 52 211 0.0 3.0 0.00 0.00 0.00 88 1010.6
20260505013306 52 211 1.0 3.0 0.00 0.00 0.00 88 1010.8
20260505012241 52 211 1.0 4.0 0.00 0.00 0.00 88 1010.8
20260505011256 52 209 1.0 3.0 0.00 0.00 0.00 88 1010.8
20260505010235 52 209 2.0 3.0 0.00 0.00 0.00 88 1011.0
20260505005234 52 209 2.0 4.0 0.00 0.00 0.00 88 1011.0
20260505004245 52 209 0.0 1.0 0.00 0.00 0.00 88 1011.1
20260505003239 52 209 0.0 1.0 0.00 0.00 0.00 88 1011.1
20260505002255 52 209 1.0 3.0 0.00 0.00 0.00 88 1011.1
20260505001240 52 209 1.0 4.0 0.00 0.00 0.00 88 1011.2
20260505000310 52 209 1.0 2.0 0.00 0.00 0.00 87 1011.1
20260504235300 52 209 0.0 2.0 0.00 0.00 0.00 88 1011.1
20260504234239 52 209 2.0 3.0 0.00 0.00 0.00 88 1011.1